Time,TemperatureF,DewpointF,PressureIn,WindDirection,WindDirectionDegrees,WindSpeedMPH,WindSpeedGustMPH,Humidity,HourlyPrecipIn,Conditions,Clouds,dailyrainin,SoftwareType,DateUTC
2013-01-01 00:03:00,32.0,28.0,28.97,West,269,3.0,6.0,85,0.00,,,0.00,,2013-01-01 05:03:00,
2013-01-01 00:12:00,32.0,28.0,28.97,West,269,3.0,6.0,85,0.00,,,0.00,,2013-01-01 05:12:00,
2013-01-01 00:22:00,32.0,28.0,28.97,SSW,207,2.0,3.0,85,0.00,,,0.00,,2013-01-01 05:22:00,
2013-01-01 00:33:00,32.0,28.0,28.97,WNW,295,2.0,4.0,86,0.00,,,0.00,,2013-01-01 05:33:00,
2013-01-01 00:42:00,32.0,28.0,28.97,WNW,295,2.0,4.0,86,0.00,,,0.00,,2013-01-01 05:42:00,
2013-01-01 00:52:00,32.0,28.0,28.97,WSW,247,2.0,3.0,86,0.00,,,0.00,,2013-01-01 05:52:00,
2013-01-01 01:02:00,32.0,29.0,28.97,WSW,239,2.0,3.0,88,0.00,,,0.00,,2013-01-01 06:02:00,
2013-01-01 01:12:00,32.0,29.0,28.97,WSW,239,2.0,3.0,88,0.00,,,0.00,,2013-01-01 06:12:00,
2013-01-01 01:22:00,32.0,29.0,28.97,SW,215,2.0,3.0,88,0.00,,,0.00,,2013-01-01 06:22:00,
2013-01-01 01:32:00,32.0,29.0,28.97,WSW,247,2.0,0.0,89,0.00,,,0.00,,2013-01-01 06:32:00,
2013-01-01 01:42:00,32.0,29.0,28.97,WSW,247,2.0,0.0,89,0.00,,,0.00,,2013-01-01 06:42:00,
2013-01-01 01:52:00,32.0,29.0,28.97,WSW,247,2.0,0.0,89,0.00,,,0.00,,2013-01-01 06:52:00,
2013-01-01 02:02:00,32.0,29.0,28.97,WSW,247,1.0,3.0,90,0.00,,,0.00,,2013-01-01 07:02:00,
2013-01-01 02:12:00,32.0,29.0,28.97,WNW,292,0.0,1.0,90,0.00,,,0.00,,2013-01-01 07:12:00,
2013-01-01 02:22:00,32.0,29.0,28.97,WNW,292,0.0,1.0,90,0.00,,,0.00,,2013-01-01 07:22:00,
2013-01-01 02:32:00,32.0,29.0,28.97,SW,225,2.0,2.0,90,0.00,,,0.00,,2013-01-01 07:32:00,
2013-01-01 02:42:00,32.0,29.0,28.97,SW,225,2.0,2.0,90,0.00,,,0.00,,2013-01-01 07:42:00,
2013-01-01 02:52:00,32.0,30.0,28.97,West,270,0.0,2.0,91,0.00,,,0.00,,2013-01-01 07:52:00,
2013-01-01 03:02:00,32.0,30.0,28.93,SSW,202,1.0,1.0,91,0.00,,,0.00,,2013-01-01 08:02:00,
2013-01-01 03:12:00,32.0,30.0,28.93,SSW,202,1.0,1.0,91,0.00,,,0.00,,2013-01-01 08:12:00,
2013-01-01 03:22:00,32.0,30.0,28.93,SSW,202,0.0,2.0,91,0.00,,,0.00,,2013-01-01 08:22:00,
2013-01-01 03:32:00,32.0,30.0,28.96,SSW,202,0.0,0.0,91,0.00,,,0.00,,2013-01-01 08:32:00,
2013-01-01 03:42:00,32.0,30.0,28.93,SSW,202,0.0,0.0,91,0.00,,,0.00,,2013-01-01 08:42:00,
2013-01-01 03:53:00,32.0,30.0,28.93,SSW,202,0.0,0.0,91,0.00,,,0.00,,2013-01-01 08:53:00,
2013-01-01 04:02:00,32.0,30.0,28.93,SSW,202,0.0,0.0,91,0.00,,,0.00,,2013-01-01 09:02:00,
2013-01-01 04:12:00,32.0,30.0,28.93,SSW,202,0.0,0.0,91,0.00,,,0.00,,2013-01-01 09:12:00,
2013-01-01 04:22:00,32.0,30.0,28.96,SSW,202,0.0,0.0,92,0.00,,,0.00,,2013-01-01 09:22:00,
2013-01-01 04:32:00,32.0,30.0,28.93,SSW,202,0.0,0.0,92,0.00,,,0.00,,2013-01-01 09:32:00,
2013-01-01 04:42:00,32.0,30.0,28.93,SSW,202,0.0,0.0,92,0.00,,,0.00,,2013-01-01 09:42:00,
2013-01-01 04:52:00,32.0,30.0,28.93,WNW,292,0.0,0.0,92,0.00,,,0.00,,2013-01-01 09:52:00,
2013-01-01 05:02:00,32.0,30.0,28.93,WNW,292,0.0,1.0,92,0.00,,,0.00,,2013-01-01 10:02:00,
2013-01-01 05:12:00,32.0,30.0,28.93,WNW,292,0.0,2.0,92,0.00,,,0.00,,2013-01-01 10:12:00,
2013-01-01 05:22:00,32.0,30.0,28.93,WNW,292,0.0,2.0,92,0.00,,,0.00,,2013-01-01 10:22:00,
2013-01-01 05:33:00,32.0,30.0,28.93,West,270,0.0,0.0,92,0.00,,,0.00,,2013-01-01 10:33:00,
2013-01-01 05:42:00,32.0,30.0,28.93,West,270,0.0,0.0,92,0.00,,,0.00,,2013-01-01 10:42:00,
2013-01-01 05:52:00,32.0,30.0,28.93,West,270,0.0,0.0,92,0.00,,,0.00,,2013-01-01 10:52:00,
2013-01-01 06:02:00,32.0,30.0,28.93,WNW,292,0.0,1.0,92,0.00,,,0.00,,2013-01-01 11:02:00,
2013-01-01 06:12:00,32.0,30.0,28.93,WNW,292,0.0,1.0,92,0.00,,,0.00,,2013-01-01 11:12:00,
2013-01-01 06:23:00,32.0,30.0,28.93,WNW,292,1.0,1.0,92,0.00,,,0.00,,2013-01-01 11:23:00,
2013-01-01 06:33:00,32.0,30.0,28.93,NNW,337,0.0,1.0,92,0.00,,,0.00,,2013-01-01 11:33:00,
2013-01-01 06:43:00,32.0,30.0,28.93,NNW,337,0.0,1.0,92,0.00,,,0.00,,2013-01-01 11:43:00,
2013-01-01 06:53:00,32.0,30.0,28.93,NNW,337,2.0,3.0,92,0.00,,,0.00,,2013-01-01 11:53:00,
2013-01-01 07:03:00,32.0,30.0,28.93,WNW,292,0.0,1.0,92,0.00,,,0.00,,2013-01-01 12:03:00,
2013-01-01 07:12:00,32.0,30.0,28.93,WNW,292,0.0,1.0,92,0.00,,,0.00,,2013-01-01 12:12:00,
2013-01-01 07:22:00,32.0,30.0,28.93,WNW,292,0.0,0.0,92,0.00,,,0.00,,2013-01-01 12:22:00,
2013-01-01 07:33:00,31.0,29.0,28.93,West,270,0.0,1.0,92,0.00,,,0.00,,2013-01-01 12:33:00,
2013-01-01 07:43:00,31.0,29.0,28.93,West,270,0.0,1.0,92,0.00,,,0.00,,2013-01-01 12:43:00,
2013-01-01 07:52:00,32.0,30.0,28.96,West,278,3.0,3.0,93,0.00,,,0.00,,2013-01-01 12:52:00,
2013-01-01 08:03:00,32.0,30.0,28.93,WSW,247,3.0,3.0,93,0.00,,,0.00,,2013-01-01 13:03:00,
2013-01-01 08:12:00,32.0,30.0,28.93,WSW,247,3.0,3.0,93,0.00,,,0.00,,2013-01-01 13:12:00,
2013-01-01 08:22:00,32.0,30.0,28.93,WSW,247,3.0,3.0,93,0.00,,,0.00,,2013-01-01 13:22:00,
2013-01-01 08:33:00,32.0,30.0,28.93,WSW,247,3.0,3.0,93,0.00,,,0.00,,2013-01-01 13:33:00,
2013-01-01 08:43:00,32.0,30.0,28.93,WSW,247,3.0,3.0,93,0.00,,,0.00,,2013-01-01 13:43:00,
2013-01-01 08:52:00,32.0,30.0,28.93,WSW,247,3.0,3.0,93,0.00,,,0.00,,2013-01-01 13:52:00,
2013-01-01 09:02:00,32.0,30.0,28.93,WSW,247,3.0,3.0,92,0.00,,,0.00,,2013-01-01 14:02:00,
2013-01-01 09:12:00,32.0,30.0,28.93,WSW,247,3.0,3.0,92,0.00,,,0.00,,2013-01-01 14:12:00,
2013-01-01 09:22:00,32.0,30.0,28.93,WSW,247,3.0,3.0,92,0.00,,,0.00,,2013-01-01 14:22:00,
2013-01-01 09:32:00,31.0,24.0,28.96,North,0,7.0,7.0,76,0.00,,,0.00,,2013-01-01 14:32:00,
2013-01-01 09:42:00,31.0,24.0,28.96,North,0,7.0,7.0,76,0.00,,,0.00,,2013-01-01 14:42:00,
2013-01-01 09:53:00,31.0,25.0,28.96,North,0,7.0,7.0,77,0.00,,,0.00,,2013-01-01 14:53:00,
2013-01-01 10:03:00,31.0,23.0,28.96,North,0,7.0,7.0,72,0.00,,,0.00,,2013-01-01 15:03:00,
2013-01-01 10:12:00,31.0,23.0,28.96,North,0,7.0,7.0,72,0.00,,,0.00,,2013-01-01 15:12:00,
2013-01-01 10:22:00,31.0,23.0,28.99,North,0,6.0,7.0,72,0.00,,,0.00,,2013-01-01 15:22:00,
2013-01-01 10:33:00,31.0,22.0,28.99,North,0,3.0,7.0,70,0.00,,,0.00,,2013-01-01 15:33:00,
2013-01-01 10:42:00,31.0,22.0,28.99,North,0,3.0,7.0,70,0.00,,,0.00,,2013-01-01 15:42:00,
2013-01-01 10:53:00,31.0,22.0,28.99,North,0,3.0,3.0,68,0.00,,,0.00,,2013-01-01 15:53:00,
2013-01-01 11:02:00,32.0,22.0,28.99,NNE,22,3.0,4.0,66,0.00,,,0.00,,2013-01-01 16:02:00,
2013-01-01 11:12:00,32.0,22.0,28.99,NNE,22,3.0,4.0,66,0.00,,,0.00,,2013-01-01 16:12:00,
2013-01-01 11:22:00,32.0,22.0,29.02,NNE,22,4.0,4.0,67,0.00,,,0.00,,2013-01-01 16:22:00,
2013-01-01 11:33:00,32.0,22.0,28.99,NNE,22,5.0,6.0,65,0.00,,,0.00,,2013-01-01 16:33:00,
2013-01-01 11:43:00,32.0,22.0,28.99,NNE,22,5.0,6.0,65,0.00,,,0.00,,2013-01-01 16:43:00,
2013-01-01 11:52:00,32.0,21.0,28.99,North,0,7.0,8.0,64,0.00,,,0.00,,2013-01-01 16:52:00,
2013-01-01 12:02:00,34.0,22.0,28.99,NNE,18,3.0,7.0,60,0.00,,,0.00,,2013-01-01 17:02:00,
2013-01-01 12:12:00,34.0,22.0,28.99,NNE,18,3.0,7.0,60,0.00,,,0.00,,2013-01-01 17:12:00,
2013-01-01 12:22:00,35.0,20.0,28.97,North,357,4.0,7.0,55,0.00,,,0.00,,2013-01-01 17:22:00,
2013-01-01 12:33:00,35.0,20.0,28.97,NNE,21,5.0,8.0,53,0.00,,,0.00,,2013-01-01 17:33:00,
2013-01-01 12:43:00,35.0,20.0,28.97,NNE,21,5.0,8.0,53,0.00,,,0.00,,2013-01-01 17:43:00,
2013-01-01 12:52:00,34.0,19.0,28.96,North,0,5.0,9.0,53,0.00,,,0.00,,2013-01-01 17:52:00,
2013-01-01 13:03:00,34.0,19.0,28.96,North,356,3.0,9.0,54,0.00,,,0.00,,2013-01-01 18:03:00,
2013-01-01 13:13:00,34.0,19.0,28.96,North,356,3.0,9.0,54,0.00,,,0.00,,2013-01-01 18:13:00,
2013-01-01 13:23:00,36.0,19.0,28.97,NNW,343,4.0,7.0,50,0.00,,,0.00,,2013-01-01 18:23:00,
2013-01-01 13:33:00,35.0,19.0,28.97,NNW,346,3.0,8.0,52,0.00,,,0.00,,2013-01-01 18:33:00,
2013-01-01 13:43:00,35.0,19.0,28.97,NNW,346,3.0,8.0,52,0.00,,,0.00,,2013-01-01 18:43:00,
2013-01-01 13:53:00,35.0,19.0,28.97,NNW,346,3.0,8.0,52,0.00,,,0.00,,2013-01-01 18:53:00,
2013-01-01 14:02:00,35.0,18.0,28.94,NNW,339,5.0,7.0,50,0.00,,,0.00,,2013-01-01 19:02:00,
2013-01-01 14:12:00,35.0,18.0,28.94,NNW,339,5.0,7.0,50,0.00,,,0.00,,2013-01-01 19:12:00,
2013-01-01 14:22:00,33.0,17.0,28.96,NW,308,5.0,9.0,51,0.00,,,0.00,,2013-01-01 19:22:00,
2013-01-01 14:33:00,33.0,17.0,28.96,NW,318,3.0,10.0,51,0.00,,,0.00,,2013-01-01 19:33:00,
2013-01-01 14:42:00,33.0,17.0,28.96,NW,318,3.0,10.0,51,0.00,,,0.00,,2013-01-01 19:42:00,
2013-01-01 14:53:00,33.0,16.0,28.93,NW,326,3.0,6.0,50,0.00,,,0.00,,2013-01-01 19:53:00,
2013-01-01 15:02:00,33.0,16.0,28.96,NNW,333,3.0,5.0,49,0.00,,,0.00,,2013-01-01 20:02:00,
2013-01-01 15:13:00,33.0,16.0,28.96,NNW,333,3.0,5.0,49,0.00,,,0.00,,2013-01-01 20:13:00,
2013-01-01 15:23:00,32.0,17.0,28.96,North,7,4.0,8.0,53,0.00,,,0.00,,2013-01-01 20:23:00,
2013-01-01 15:32:00,31.0,17.0,28.96,North,7,4.0,9.0,55,0.00,,,0.00,,2013-01-01 20:32:00,
2013-01-01 15:42:00,31.0,17.0,28.96,North,7,4.0,9.0,55,0.00,,,0.00,,2013-01-01 20:42:00,
2013-01-01 15:53:00,30.0,17.0,28.99,NNE,15,5.0,8.0,58,0.00,,,0.00,,2013-01-01 20:53:00,
2013-01-01 16:03:00,30.0,17.0,28.96,North,8,5.0,9.0,58,0.00,,,0.00,,2013-01-01 21:03:00,
2013-01-01 16:13:00,29.0,16.0,28.99,NNW,337,3.0,7.0,59,0.00,,,0.00,,2013-01-01 21:13:00,
2013-01-01 16:22:00,29.0,16.0,28.99,NNW,337,3.0,7.0,59,0.00,,,0.00,,2013-01-01 21:22:00,
2013-01-01 16:33:00,29.0,17.0,28.99,NNW,346,4.0,6.0,60,0.00,,,0.00,,2013-01-01 21:33:00,
2013-01-01 16:42:00,29.0,17.0,28.99,NNW,346,4.0,6.0,60,0.00,,,0.00,,2013-01-01 21:42:00,
2013-01-01 16:53:00,28.0,17.0,28.99,North,7,2.0,11.0,62,0.00,,,0.00,,2013-01-01 21:53:00,
2013-01-01 17:03:00,27.0,15.0,28.99,North,6,4.0,7.0,61,0.00,,,0.00,,2013-01-01 22:03:00,
2013-01-01 17:12:00,27.0,15.0,28.99,North,6,4.0,7.0,61,0.00,,,0.00,,2013-01-01 22:12:00,
2013-01-01 17:22:00,26.0,14.0,28.99,North,359,4.0,6.0,60,0.00,,,0.00,,2013-01-01 22:22:00,
2013-01-01 17:33:00,26.0,14.0,28.99,NNW,347,2.0,6.0,61,0.00,,,0.00,,2013-01-01 22:33:00,
2013-01-01 17:42:00,26.0,14.0,28.99,NNW,347,2.0,6.0,61,0.00,,,0.00,,2013-01-01 22:42:00,
2013-01-01 17:53:00,25.0,14.0,29.01,North,354,3.0,4.0,63,0.00,,,0.00,,2013-01-01 22:53:00,
2013-01-01 18:03:00,25.0,15.0,28.98,North,352,4.0,4.0,65,0.00,,,0.00,,2013-01-01 23:03:00,
2013-01-01 18:12:00,25.0,15.0,28.98,North,352,4.0,4.0,65,0.00,,,0.00,,2013-01-01 23:12:00,
2013-01-01 18:22:00,25.0,15.0,28.98,North,353,3.0,6.0,64,0.00,,,0.00,,2013-01-01 23:22:00,
2013-01-01 18:32:00,25.0,15.0,28.98,North,0,3.0,4.0,65,0.00,,,0.00,,2013-01-01 23:32:00,
2013-01-01 18:42:00,25.0,15.0,28.98,North,0,3.0,4.0,65,0.00,,,0.00,,2013-01-01 23:42:00,
2013-01-01 18:53:00,25.0,15.0,28.98,North,356,3.0,3.0,66,0.00,,,0.00,,2013-01-01 23:53:00,
2013-01-01 19:03:00,25.0,15.0,28.98,NNW,342,2.0,5.0,65,0.00,,,0.00,,2013-01-02 00:03:00,
2013-01-01 19:12:00,25.0,15.0,28.98,NNW,342,2.0,5.0,65,0.00,,,0.00,,2013-01-02 00:12:00,
2013-01-01 19:22:00,25.0,15.0,29.01,NNW,337,2.0,2.0,65,0.00,,,0.00,,2013-01-02 00:22:00,
2013-01-01 19:32:00,25.0,15.0,29.01,NNW,337,2.0,2.0,64,0.00,,,0.00,,2013-01-02 00:32:00,
2013-01-01 19:42:00,25.0,15.0,29.01,NNW,337,2.0,2.0,64,0.00,,,0.00,,2013-01-02 00:42:00,
2013-01-01 19:53:00,25.0,14.0,29.01,NNE,22,3.0,3.0,63,0.00,,,0.00,,2013-01-02 00:53:00,
2013-01-01 20:02:00,25.0,14.0,29.01,NNE,22,3.0,4.0,62,0.00,,,0.00,,2013-01-02 01:02:00,
2013-01-01 20:12:00,25.0,14.0,29.01,NNE,22,3.0,4.0,62,0.00,,,0.00,,2013-01-02 01:12:00,
2013-01-01 20:22:00,25.0,14.0,29.01,NNE,22,3.0,3.0,62,0.00,,,0.00,,2013-01-02 01:22:00,
2013-01-01 20:32:00,24.0,13.0,28.98,North,7,3.0,3.0,61,0.00,,,0.00,,2013-01-02 01:32:00,
2013-01-01 20:42:00,24.0,13.0,28.98,North,7,3.0,3.0,61,0.00,,,0.00,,2013-01-02 01:42:00,
2013-01-01 20:52:00,24.0,11.0,29.01,NNW,346,5.0,7.0,57,0.00,,,0.00,,2013-01-02 01:52:00,
2013-01-01 21:02:00,24.0,11.0,29.01,North,356,4.0,6.0,56,0.00,,,0.00,,2013-01-02 02:02:00,
2013-01-01 21:12:00,24.0,11.0,29.01,North,356,4.0,6.0,56,0.00,,,0.00,,2013-01-02 02:12:00,
2013-01-01 21:22:00,24.0,11.0,29.01,North,349,3.0,6.0,56,0.00,,,0.00,,2013-01-02 02:22:00,
2013-01-01 21:32:00,24.0,11.0,29.01,North,353,3.0,4.0,57,0.00,,,0.00,,2013-01-02 02:32:00,
2013-01-01 21:42:00,24.0,11.0,29.01,North,353,3.0,4.0,57,0.00,,,0.00,,2013-01-02 02:42:00,
2013-01-01 21:53:00,24.0,11.0,29.01,NNE,15,3.0,4.0,57,0.00,,,0.00,,2013-01-02 02:53:00,
2013-01-01 22:02:00,24.0,11.0,29.01,NNE,22,1.0,3.0,58,0.00,,,0.00,,2013-01-02 03:02:00,
2013-01-01 22:12:00,24.0,11.0,29.01,NNE,22,1.0,3.0,58,0.00,,,0.00,,2013-01-02 03:12:00,
2013-01-01 22:22:00,24.0,11.0,29.01,NNE,15,3.0,4.0,57,0.00,,,0.00,,2013-01-02 03:22:00,
2013-01-01 22:32:00,23.0,10.0,29.01,NNE,22,2.0,4.0,57,0.00,,,0.00,,2013-01-02 03:32:00,
2013-01-01 22:42:00,23.0,10.0,29.01,NNE,22,2.0,4.0,57,0.00,,,0.00,,2013-01-02 03:42:00,
2013-01-01 22:53:00,23.0,10.0,29.01,North,11,2.0,4.0,56,0.00,,,0.00,,2013-01-02 03:53:00,
2013-01-01 23:02:00,23.0,10.0,29.01,NNE,22,1.0,3.0,57,0.00,,,0.00,,2013-01-02 04:02:00,
2013-01-01 23:12:00,23.0,10.0,29.01,NNE,22,1.0,3.0,57,0.00,,,0.00,,2013-01-02 04:12:00,
2013-01-01 23:22:00,23.0,10.0,29.01,North,0,0.0,3.0,58,0.00,,,0.00,,2013-01-02 04:22:00,
2013-01-01 23:32:00,23.0,10.0,29.01,NNE,16,1.0,4.0,58,0.00,,,0.00,,2013-01-02 04:32:00,
2013-01-01 23:42:00,23.0,10.0,29.01,NNE,16,1.0,4.0,58,0.00,,,0.00,,2013-01-02 04:42:00,
2013-01-01 23:53:00,23.0,11.0,29.01,West,273,3.0,6.0,59,0.00,,,0.00,,2013-01-02 04:53:00,